Terminal Aerodrome Forecast
Issued by NWS

Current Version | Previous Version | Text Only | Print | Product List | Glossary Off
Versions: 1 2 3 4 5 6 7 8 9 10 11 12 13 14 15 16 17 18 19 20 21 22 23 24 25 26 27 28 29

000
FTUS41 KILN 191400 AAA
TAFLCK
TAF AMD
KLCK 191458Z 1915/2012 12010G14KT P6SM BKN120
     FM191800 10014G26KT 5SM -SHRA OVC050
     FM192200 14016G26KT 5SM -SHRA OVC018
     FM200300 17012G24KT P6SM VCSH OVC020
     FM200500 21012G20KT P6SM VCSH OVC015=

USA.gov is the U.S. government's official web portal to all federal, state and local government web resources and services.